Weather History for KCXY - December, 2012

Change the Weather History Date:

Thursday, December 20, 2012

  Actual Average Record
Temperature  
Mean Temperature 36 °F -  
Max Temperature 44 °F 38 °F 62 °F (1957)
Min Temperature 30 °F 24 °F 3 °F (1942)
Degree Days  
Heating Degree Days 28    
Moisture  
Dew Point 33 °F    
Average Humidity 84    
Maximum Humidity 100    
Minimum Humidity 60    
Precipitation  
Precipitation 0.65 in - - ()
Sea Level Pressure  
Sea Level Pressure 29.98 in    
Wind  
Wind Speed 5 mph (ESE)    
Max Wind Speed 17 mph    
Max Gust Speed 25 mph    
Visibility 7 miles    
Events Rain    
Averages and records for this station are not official NWS values.
T = Trace of Precipitation, MM = Missing Value Source: NWS Daily Summary

Daily Weather History Graph

Daily Weather History Graph

Search for Another Location

Airport or City:

Trip Planner

Search our weather history database for the weather conditions in past years. The results will help you decide how hot, cold, wet, or windy it might be!

Date:

Astronomy

Dec. 20, 2012 Rise Set
Actual Time 7:26 AM EST 4:44 PM EST
Civil Twilight 6:55 AM EST 5:15 PM EST
Nautical Twilight 6:21 AM EST 5:49 PM EST
Astronomical Twilight 5:48 AM EST 6:22 PM EST
Moon 12:01 PM EST (12/20) 12:10 AM EST (12/20)
Length of Visible Light 10h 19m
Length of Day
9h 18m
First Quarter, 55% of the Moon is Illuminated
Dec 20
First Quarter
Dec 28
Full
Jan 4
Last Quarter
Jan 11
New
Jan 18
First Quarter

Hourly Weather History & Observations

Time (EST) Temp. Windchill Dew Point Humidity Pressure Visibility Wind Dir Wind Speed Gust Speed Precip Events Conditions
12:56 AM 32.0 °F - 28.0 °F 85% 30.18 in 10.0 mi Calm Calm - N/A   Clear
1:56 AM 30.0 °F - 27.0 °F 88% 30.19 in 8.0 mi Calm Calm - N/A   Clear
2:56 AM 33.1 °F - 28.9 °F 85% 30.21 in 9.0 mi Calm Calm - N/A   Clear
3:56 AM 30.0 °F - 27.0 °F 88% 30.21 in 9.0 mi Calm Calm - N/A   Clear
4:56 AM 32.0 °F - 28.9 °F 88% 30.20 in 9.0 mi Calm Calm - N/A   Clear
5:56 AM 32.0 °F - 30.0 °F 92% 30.21 in 8.0 mi Calm Calm - N/A   Clear
6:56 AM 33.1 °F - 28.9 °F 85% 30.21 in 8.0 mi Calm Calm - N/A   Clear
7:56 AM 33.1 °F - 30.0 °F 89% 30.20 in 7.0 mi Calm Calm - N/A   Clear
8:56 AM 35.1 °F 31.0 °F 32.0 °F 89% 30.18 in 8.0 mi East 4.6 mph - N/A   Clear
9:56 AM 37.0 °F - 33.1 °F 86% 30.17 in 7.0 mi Calm Calm - N/A   Clear
10:56 AM 39.0 °F 34.0 °F 32.0 °F 76% 30.12 in 8.0 mi ESE 6.9 mph - N/A   Clear
11:56 AM 42.1 °F 36.1 °F 30.9 °F 65% 30.09 in 10.0 mi SE 10.4 mph - N/A   Clear
12:56 PM 42.1 °F 36.6 °F 30.9 °F 65% 30.07 in 10.0 mi East 9.2 mph - N/A   Clear
1:56 PM 42.1 °F 36.6 °F 30.9 °F 65% 30.03 in 10.0 mi ESE 9.2 mph - N/A   Clear
2:56 PM 43.0 °F 37.7 °F 30.0 °F 60% 30.01 in 10.0 mi ESE 9.2 mph - N/A   Clear
3:56 PM 42.1 °F 35.7 °F 30.0 °F 62% 29.97 in 10.0 mi ESE 11.5 mph - 0.00 in Rain Light Rain
4:56 PM 39.9 °F 32.1 °F 33.1 °F 77% 29.96 in 9.0 mi SE 13.8 mph - 0.01 in Rain Light Rain
5:56 PM 39.0 °F 31.0 °F 34.0 °F 82% 29.94 in 10.0 mi SE 13.8 mph - 0.01 in   Overcast
6:56 PM 37.9 °F 29.2 °F 35.1 °F 89% 29.89 in 8.0 mi ESE 15.0 mph - 0.06 in Rain Rain
7:56 PM 39.0 °F 31.8 °F 36.0 °F 89% 29.85 in 5.0 mi SE 11.5 mph - 0.10 in Rain Rain
8:27 PM 39.2 °F 31.2 °F 37.4 °F 93% 29.82 in 4.0 mi ESE 13.8 mph 21.9 mph 0.07 in Rain Rain
8:43 PM 41.0 °F 32.5 °F 37.4 °F 87% 29.79 in 4.0 mi ESE 17.3 mph 24.2 mph 0.11 in Rain Rain
8:56 PM 39.9 °F 32.1 °F 37.9 °F 93% 29.78 in 4.0 mi ESE 13.8 mph - 0.14 in Rain Rain
9:10 PM 41.0 °F 33.1 °F 39.2 °F 93% 29.76 in 5.0 mi ESE 15.0 mph 20.7 mph 0.02 in Rain Rain
9:56 PM 41.0 °F 34.3 °F 39.0 °F 93% 29.69 in 5.0 mi ESE 11.5 mph 25.3 mph 0.09 in Rain Rain
10:56 PM 42.1 °F 34.9 °F 39.9 °F 92% 29.60 in 4.0 mi ESE 13.8 mph 25.3 mph 0.09 in Rain Rain
11:45 PM 42.8 °F 35.4 °F 42.8 °F 100% 29.51 in 2.5 mi ESE 15.0 mph 24.2 mph 0.13 in Rain Rain
11:56 PM 44.1 °F 36.5 °F 42.1 °F 93% 29.49 in 2.0 mi ESE 17.3 mph - 0.15 in Rain Rain